timestamp,surface_pressure_avg,surface_temp_avg,battery_voltage,lat,long
2023-05-04 00:09:00+00:00,327.1697,2.3,12.97,47.84626,-54.09684
2023-05-04 00:19:00+00:00,321.0031,2.34,12.81,47.84626,-54.09684
2023-05-04 00:29:00+00:00,317.1029,2.39,12.81,47.84626,-54.09684
2023-05-04 00:39:00+00:00,312.2363,2.4,12.81,47.84626,-54.09684
2023-05-04 00:49:00+00:00,303.6946,2.42,12.81,47.84626,-54.09684
2023-05-04 00:59:00+00:00,292.5913,2.5,12.81,47.84626,-54.09684
2023-05-04 01:09:00+00:00,288.0514,2.6,12.81,47.84626,-54.09684
2023-05-04 01:19:00+00:00,285.7947,2.7,12.73,47.84626,-54.09684
2023-05-04 01:29:00+00:00,275.2831,2.7,12.73,47.84626,-54.09684
2023-05-04 01:39:00+00:00,264.5914,2.81,12.73,47.84626,-54.09684
2023-05-04 01:49:00+00:00,257.6881,2.84,12.73,47.84626,-54.09684
2023-05-04 01:59:00+00:00,252.3164,2.8,12.73,47.84626,-54.09684
2023-05-04 02:09:00+00:00,243.9164,2.8,12.73,47.84626,-54.09684
2023-05-04 02:19:00+00:00,238.5247,2.89,12.73,47.84626,-54.09684
2023-05-04 02:29:00+00:00,234.7398,2.89,12.73,47.84626,-54.09684
2023-05-04 02:39:00+00:00,228.7932,2.9,12.73,47.84626,-54.09684
2023-05-04 02:49:00+00:00,221.6881,2.88,12.73,47.84626,-54.09684
2023-05-04 02:59:00+00:00,216.8748,2.8,12.73,47.84626,-54.09684
2023-05-04 03:09:00+00:00,213.053,2.8,12.73,47.84626,-54.09684
2023-05-04 03:19:00+00:00,208.1681,2.74,12.73,47.84626,-54.09684
2023-05-04 03:29:00+00:00,203.0281,2.72,12.73,47.84626,-54.09684
2023-05-04 03:39:00+00:00,198.9231,2.8,12.73,47.84626,-54.09684
2023-05-04 03:49:00+00:00,196.9131,2.8,12.73,47.84626,-54.09684
2023-05-04 03:59:00+00:00,193.2581,2.8,12.73,47.84626,-54.09684
2023-05-04 04:09:00+00:00,188.6581,2.8,12.73,47.84626,-54.09684
2023-05-04 04:19:00+00:00,186.4515,2.8,12.65,47.84626,-54.09684
2023-05-04 04:29:00+00:00,188.4415,2.87,12.65,47.84626,-54.09684
2023-05-04 04:39:00+00:00,189.9015,2.85,12.65,47.84626,-54.09684
2023-05-04 04:49:00+00:00,188.5364,2.81,12.65,47.84626,-54.09684
2023-05-04 04:59:00+00:00,188.9215,2.89,12.65,47.84626,-54.09684
2023-05-04 05:09:00+00:00,190.7398,2.9,12.65,47.84626,-54.09684
2023-05-04 05:19:00+00:00,192.4898,2.9,12.65,47.84626,-54.09684
2023-05-04 05:29:00+00:00,195.3714,2.9,12.65,47.84626,-54.09684
2023-05-04 05:39:00+00:00,200.9464,2.97,12.65,47.84626,-54.09684
2023-05-04 05:49:00+00:00,201.0149,3.0,12.65,47.84626,-54.09684
2023-05-04 05:59:00+00:00,201.4498,3.0,12.65,47.84626,-54.09684
2023-05-04 06:09:00+00:00,209.9548,3.0,12.65,47.84626,-54.09684
2023-05-04 06:19:01+00:00,215.0814,3.0,12.65,47.84626,-54.09684
2023-05-04 06:29:01+00:00,215.8514,3.0,12.65,47.84626,-54.09684
2023-05-04 06:39:01+00:00,219.2715,3.05,12.65,47.84626,-54.09684
2023-05-04 06:49:01+00:00,225.2831,3.09,12.65,47.84626,-54.09684
2023-05-04 06:59:01+00:00,229.2914,3.1,12.65,47.84626,-54.09684
2023-05-04 07:09:01+00:00,232.8381,3.1,12.65,47.84626,-54.09684
2023-05-04 07:19:00+00:00,238.4981,3.1,12.65,47.84626,-54.09684
2023-05-04 07:29:00+00:00,245.3098,3.1,12.65,47.84626,-54.09684
2023-05-04 07:39:00+00:00,250.7664,3.1,12.65,47.84626,-54.09684
2023-05-04 07:49:00+00:00,255.5681,3.04,12.65,47.84626,-54.09684
2023-05-04 07:59:00+00:00,263.3363,3.0,12.65,47.84626,-54.09684
2023-05-04 08:09:00+00:00,267.7631,3.0,12.65,47.84626,-54.09684
2023-05-04 08:19:00+00:00,269.9515,3.09,12.65,47.84626,-54.09684
2023-05-04 08:29:00+00:00,275.743,3.07,12.65,47.84626,-54.09684
2023-05-04 08:39:00+00:00,285.248,2.58,12.65,47.84626,-54.09684
2023-05-04 08:49:00+00:00,293.3413,2.6,12.65,47.84626,-54.09684
2023-05-04 08:59:00+00:00,298.6797,2.6,12.65,47.84626,-54.09684
2023-05-04 09:09:00+00:00,304.973,2.59,12.65,47.84626,-54.09684
2023-05-04 09:19:00+00:00,307.928,2.5,12.57,47.84626,-54.09684
2023-05-04 09:29:00+00:00,312.1547,2.5,12.57,47.84626,-54.09684
2023-05-04 09:39:00+00:00,318.468,2.4,12.57,47.84626,-54.09684
2023-05-04 09:49:00+00:00,322.1497,2.2,12.57,47.84626,-54.09684
2023-05-04 09:59:00+00:00,324.8497,2.2,12.57,47.84626,-54.09684
2023-05-04 10:09:00+00:00,327.1197,2.1,12.57,47.84626,-54.09684
2023-05-04 10:19:00+00:00,330.6795,2.1,12.65,47.84626,-54.09684
2023-05-04 10:29:00+00:00,333.6297,2.17,12.65,47.84626,-54.09684
2023-05-04 10:39:00+00:00,334.05300000000005,2.25,12.65,47.84626,-54.09684
2023-05-04 10:49:00+00:00,333.9614,2.29,12.65,47.84626,-54.09684
2023-05-04 10:59:00+00:00,333.8396,2.3,12.65,47.84626,-54.09684
2023-05-04 11:09:00+00:00,334.0031,2.3,12.65,47.84626,-54.09684
2023-05-04 11:19:00+00:00,334.9814,2.3,12.73,47.84626,-54.09684
2023-05-04 11:29:00+00:00,336.6396,2.3,12.73,47.84626,-54.09684
2023-05-04 11:39:00+00:00,333.103,2.3,12.73,47.84626,-54.09684
2023-05-04 11:49:00+00:00,327.1746,2.3,12.73,47.84626,-54.09684
2023-05-04 11:59:00+00:00,326.4531,1.9,12.73,47.84626,-54.09684
2023-05-04 12:09:00+00:00,324.033,1.89,12.73,47.84626,-54.09684
2023-05-04 12:19:00+00:00,318.3947,1.94,12.97,47.84626,-54.09684
2023-05-04 12:29:00+00:00,315.453,2.0,12.97,47.84626,-54.09684
2023-05-04 12:39:00+00:00,313.828,2.05,12.97,47.84626,-54.09684
2023-05-04 12:49:00+00:00,309.7313,2.5,12.97,47.84626,-54.09684
2023-05-04 12:59:00+00:00,303.58299999999997,2.94,12.97,47.84626,-54.09684
2023-05-04 13:09:00+00:00,300.1164,3.1,12.97,47.84626,-54.09684
2023-05-04 13:19:00+00:00,293.2631,3.1,13.21,47.84626,-54.09684
2023-05-04 13:29:00+00:00,280.688,2.9,13.21,47.84626,-54.09684
2023-05-04 13:39:00+00:00,272.5714,3.02,13.21,47.84626,-54.09684
2023-05-04 13:49:00+00:00,268.0631,3.08,13.21,47.84626,-54.09684
2023-05-04 13:59:00+00:00,260.2781,2.8,13.21,47.84626,-54.09684
2023-05-04 14:09:00+00:00,247.9381,2.79,13.21,47.84626,-54.09684
2023-05-04 14:19:00+00:00,243.4397,3.14,13.53,47.84626,-54.09684
2023-05-04 14:29:00+00:00,239.9097,3.18,13.53,47.84626,-54.09684
2023-05-04 14:39:00+00:00,231.1031,3.2,13.53,47.84626,-54.09684
2023-05-04 14:49:00+00:00,221.9548,3.1,13.53,47.84626,-54.09684
2023-05-04 14:59:00+00:00,218.5215,2.91,13.53,47.84626,-54.09684
2023-05-04 15:09:00+00:00,211.2548,2.33,13.53,47.84626,-54.09684
2023-05-04 15:19:00+00:00,200.0198,2.81,13.6,47.84626,-54.09684
2023-05-04 15:29:00+00:00,194.7148,3.03,13.6,47.84626,-54.09684
2023-05-04 15:39:00+00:00,192.7314,3.2,13.6,47.84626,-54.09684
2023-05-04 15:49:00+00:00,185.6531,3.24,13.6,47.84626,-54.09684
2023-05-04 15:59:00+00:00,179.0115,3.26,13.6,47.84626,-54.09684
2023-05-04 16:09:00+00:00,177.9731,2.74,13.6,47.84626,-54.09684
2023-05-04 16:19:00+00:00,176.9965,2.39,13.68,47.84626,-54.09684
2023-05-04 16:29:00+00:00,175.3215,2.32,13.68,47.84626,-54.09684
2023-05-04 16:39:00+00:00,172.9115,2.3,13.68,47.84626,-54.09684
2023-05-04 16:49:00+00:00,170.4315,2.3,13.68,47.84626,-54.09684
2023-05-04 16:59:00+00:00,172.8448,2.35,13.68,47.84626,-54.09684
2023-05-04 17:09:00+00:00,178.0182,2.45,13.68,47.84626,-54.09684
2023-05-04 17:19:00+00:00,179.8415,2.8,13.84,47.84626,-54.09684
2023-05-04 17:29:00+00:00,179.7165,2.9,13.84,47.84626,-54.09684
2023-05-04 17:39:00+00:00,184.5415,2.9,13.84,47.84626,-54.09684
2023-05-04 17:49:00+00:00,193.6964,3.18,13.84,47.84626,-54.09684
2023-05-04 17:59:00+00:00,197.4615,3.23,13.84,47.84626,-54.09684
2023-05-04 18:09:00+00:00,199.5748,3.2,13.84,47.84626,-54.09684
2023-05-04 18:19:00+00:00,207.1531,2.64,13.92,47.84626,-54.09684
2023-05-04 18:29:00+00:00,214.8514,2.43,13.92,47.84626,-54.09684
2023-05-04 18:39:00+00:00,219.1431,2.5,13.92,47.84626,-54.09684
2023-05-04 18:49:00+00:00,222.6198,2.68,13.92,47.84626,-54.09684
2023-05-04 18:59:00+00:00,230.2431,2.5,13.92,47.84626,-54.09684
2023-05-04 19:09:00+00:00,236.5814,2.7,13.92,47.84626,-54.09684
2023-05-04 19:19:00+00:00,238.8714,3.06,13.92,47.84626,-54.09684
2023-05-04 19:29:00+00:00,242.8448,3.32,13.92,47.84626,-54.09684
2023-05-04 19:39:00+00:00,248.6514,3.39,13.92,47.84626,-54.09684
2023-05-04 19:49:00+00:00,254.6931,2.76,13.92,47.84626,-54.09684
2023-05-04 19:59:00+00:00,259.7114,2.77,13.92,47.84626,-54.09684
2023-05-04 20:09:00+00:00,266.9714,2.87,13.92,47.84626,-54.09684
2023-05-04 20:19:00+00:00,272.1681,3.4,13.68,47.84626,-54.09684
2023-05-04 20:29:00+00:00,277.4798,3.49,13.68,47.84626,-54.09684
2023-05-04 20:39:00+00:00,283.4797,2.51,13.68,47.84626,-54.09684
2023-05-04 20:49:00+00:00,291.4064,2.3,13.68,47.84626,-54.09684
2023-05-04 20:59:00+00:00,296.2563,2.68,13.68,47.84626,-54.09684
2023-05-04 21:09:00+00:00,303.9147,3.07,13.68,47.84626,-54.09684
2023-05-04 21:19:00+00:00,313.148,3.08,13.44,47.84626,-54.09684
2023-05-04 21:29:00+00:00,318.2863,2.8,13.44,47.84626,-54.09684
2023-05-04 21:39:00+00:00,322.8396,2.79,13.44,47.84626,-54.09684
2023-05-04 21:49:00+00:00,328.8896,2.7,13.44,47.84626,-54.09684
2023-05-04 21:59:00+00:00,335.3947,2.91,13.44,47.84626,-54.09684
2023-05-04 22:09:00+00:00,338.3663,3.0,13.44,47.84626,-54.09684
2023-05-04 22:19:00+00:00,341.8213,3.08,13.21,47.84626,-54.09684
2023-05-04 22:29:00+00:00,346.6697,3.0,13.21,47.84626,-54.09684
2023-05-04 22:39:00+00:00,349.75300000000016,3.0,13.21,47.84626,-54.09684
2023-05-04 22:49:00+00:00,350.8045,3.0,13.21,47.84626,-54.09684
2023-05-04 22:59:00+00:00,351.5262,3.0,13.21,47.84626,-54.09684
2023-05-04 23:09:00+00:00,352.3079,2.99,13.21,47.84626,-54.09684
2023-05-04 23:19:00+00:00,352.5446,2.98,12.97,47.84626,-54.09684
2023-05-04 23:29:00+00:00,352.4913,3.0,12.97,47.84626,-54.09684
2023-05-04 23:39:00+00:00,351.4612,3.0,12.97,47.84626,-54.09684
2023-05-04 23:49:00+00:00,349.8446,2.9,12.97,47.84626,-54.09684
2023-05-04 23:59:00+00:00,347.7663,2.9,12.97,47.84626,-54.09684
